Change the Weather History Date:

Wednesday, October 31, 2012

  Actual Average (KPDC) Record (KPDC)
Temperature  
Mean Temperature 38 °F -  
Max Temperature 51 °F 57 °F 83 °F (1950)
Min Temperature 26 °F 38 °F 22 °F (1954)
Degree Days  
Heating Degree Days 27    
Moisture  
Dew Point 20 °F    
Average Humidity 60    
Maximum Humidity 80    
Minimum Humidity 23    
Precipitation  
Precipitation 0.00 in - - ()
Sea Level Pressure  
Sea Level Pressure 29.96 in    
Wind  
Wind Speed 5 mph (NW)    
Max Wind Speed 12 mph    
Max Gust Speed 18 mph    
Visibility 9 miles    
Events      
Averages and records for this station are not official NWS values.
T = Trace of Precipitation, MM = Missing Value Source: NWS Daily Summary

Daily Weather History Graph

Daily Weather History Graph

Search for Another Location

Airport or City:

Trip Planner

Search our weather history database for the weather conditions in past years. The results will help you decide how hot, cold, wet, or windy it might be!

Date:

Astronomy

Oct. 31, 2012 Rise Set
Actual Time 7:36 AM CDT 5:55 PM CDT
Civil Twilight 7:07 AM CDT 6:24 PM CDT
Nautical Twilight 6:33 AM CDT 6:58 PM CDT
Astronomical Twilight 6:00 AM CDT 7:31 PM CDT
Moon 7:03 PM CDT (10/31) 9:21 AM CDT (10/31)
Length of Visible Light 11h 17m
Length of Day
10h 18m
Full, 97% of the Moon is Illuminated
Oct 31
Full
Nov 6
Last Quarter
Nov 13
New
Nov 20
First Quarter
Nov 28
Full

Hourly Weather History & Observations

Time (CDT) Temp. Windchill Dew Point Humidity Pressure Visibility Wind Dir Wind Speed Gust Speed Precip Events Conditions
12:53 AM 32.0 °F 25.6 °F 21.9 °F 66% 29.99 in 10.0 mi North 6.9 mph - N/A   Clear
1:53 AM 30.9 °F 26.2 °F 23.0 °F 72% 29.98 in 10.0 mi North 4.6 mph - N/A   Clear
2:53 AM 30.9 °F 25.2 °F 21.9 °F 69% 29.99 in 10.0 mi NNW 5.8 mph - N/A   Clear
3:53 AM 30.0 °F - 21.9 °F 72% 29.98 in 10.0 mi Calm Calm - N/A   Clear
4:53 AM 28.0 °F - 21.9 °F 78% 29.98 in 10.0 mi Calm Calm - N/A   Clear
5:53 AM 30.0 °F 26.5 °F 21.9 °F 72% 29.99 in 10.0 mi Variable 3.5 mph - N/A   Clear
6:53 AM 27.0 °F - 21.0 °F 78% 29.98 in 10.0 mi Calm Calm - N/A   Clear
7:53 AM 28.0 °F - 21.9 °F 78% 29.99 in 10.0 mi Calm Calm - N/A   Clear
8:53 AM 32.0 °F 26.4 °F 24.1 °F 73% 29.99 in 10.0 mi North 5.8 mph - N/A   Clear
9:53 AM 36.0 °F 28.5 °F 24.1 °F 62% 29.99 in 10.0 mi NNW 10.4 mph - N/A   Clear
10:53 AM 39.9 °F 32.9 °F 24.1 °F 53% 29.98 in 10.0 mi North 11.5 mph 17.3 mph N/A   Clear
11:53 AM 44.1 °F 38.1 °F 21.0 °F 40% 29.97 in 10.0 mi NW 11.5 mph 18.4 mph N/A   Clear
12:53 PM 46.9 °F - 17.1 °F 30% 29.96 in 10.0 mi NW 9.2 mph 18.4 mph N/A   Clear
2:53 PM 50.0 °F - 16.0 °F 26% 29.92 in 10.0 mi NW 9.2 mph - N/A   Clear
3:53 PM 50.0 °F - 12.9 °F 23% 29.92 in 10.0 mi NNW 9.2 mph - N/A   Clear
4:53 PM 48.9 °F - 15.1 °F 26% 29.92 in 10.0 mi NNW 6.9 mph - N/A   Clear
5:53 PM 46.0 °F 44.8 °F 14.0 °F 28% 29.93 in 10.0 mi WNW 3.5 mph - N/A   Clear
7:53 PM 32.0 °F - 18.0 °F 56% 29.96 in 10.0 mi Calm Calm - N/A   Clear
8:53 PM 32.0 °F - 21.0 °F 64% 29.95 in 10.0 mi Calm Calm - N/A   Clear
9:53 PM 30.0 °F - 21.0 °F 69% 29.96 in 10.0 mi Calm Calm - N/A   Clear
10:53 PM 28.9 °F - 21.9 °F 75% 29.95 in 10.0 mi Calm Calm - N/A   Clear
11:20 PM 26.6 °F 22.6 °F 21.2 °F 80% 29.93 in 1.8 mi South 3.5 mph - N/A   Haze
11:27 PM 26.6 °F 21.2 °F 19.4 °F 74% 29.92 in 3.0 mi SSW 4.6 mph - N/A   Haze
11:53 PM 28.0 °F 24.2 °F 21.9 °F 78% 29.95 in 10.0 mi South 3.5 mph - N/A   Partly Cloudy